Location: Nitra
(0.0000°N, 18.0833°E)
Time: 06:46:22
(UTC+02:00)

Oscar 11 - Visible Passes

Search period start: 31 May 2023 00:00
Search period end: 10 June 2023 00:00
Orbit: 609 x 618 km, 97.7° (Epoch: 30 May)

Date Brightness Start Highest point End Pass type
(mag) Time Alt. Az. Time Alt. Az. Time Alt. Az.
31 May 8.3 04:34:03 10° NNE 04:36:52 39° NE 04:36:52 39° NE visible
01 Jun 7.7 04:49:23 10° N 04:52:27 46° N 04:52:27 46° N visible
02 Jun 7.8 05:04:58 10° N 05:08:01 37° NW 05:08:01 37° NW visible
03 Jun 8.3 05:20:49 10° NNW 05:23:35 25° WNW 05:23:35 25° WNW visible
04 Jun 9.9 04:00:54 10° NE 04:02:06 15° ENE 04:02:06 15° ENE visible
04 Jun 8.8 05:37:07 10° NW 05:39:08 16° WNW 05:39:08 16° WNW visible
05 Jun 9.2 04:15:33 10° NE 04:17:39 24° ENE 04:17:39 24° ENE visible
06 Jun 8.5 04:30:34 10° NNE 04:33:13 35° NE 04:33:13 35° NE visible
07 Jun 7.9 04:45:50 10° N 04:48:46 44° N 04:48:46 44° N visible
08 Jun 7.8 05:01:20 10° N 05:04:19 38° NNW 05:04:19 38° NNW visible
09 Jun 8.2 05:17:07 10° NNW 05:19:51 26° NW 05:19:51 26° NW visible
